{"data":{"norad_id":55289,"intl_designator":"2023-010W","name":"STARLINK-5320","alt_names":[],"object_type":"PAYLOAD","status":"ACTIVE","operator":null,"country":"US","launch_date":"2023-01-19","launch_site_code":"AFWTR","launch_vehicle":null,"mission":null,"orbit_class":"UNKNOWN","rcs_meters":null,"size_class":null,"mass_kg":null,"dimensions":null,"purposes":["comms"],"wikipedia_slug":null,"has_3d_model":false,"image_url":null,"decayed_at":null,"tle_current":{"epoch":"2026-09-20T09:44:25.831392Z","epoch_age_seconds":101554,"freshness":"FRESH","line1":"1 55289U 23010W   26263.40585453  .00000172  00000+0  22188-4 0  9992","line2":"2 55289  69.9974 253.5904 0004110 266.3910  93.6779 14.98339864202433","mean_motion":14.98339864,"eccentricity":0.000411,"inclination_deg":69.9974,"raan_deg":253.5904,"arg_perigee_deg":266.391,"mean_anomaly_deg":93.6779,"bstar":2.2187999999999998e-5,"rev_number":20243,"period_min":96.106366425822,"perigee_km":569.16887076418,"apogee_km":574.88190424671,"semimajor_km":6950.1623875054,"source":"CELESTRAK","updated_at":"2026-09-21T09:00:33.168785Z"}}}